Location: Newark
(49.0797°N, 0.6553°W)
Time: 06:03:59
(UTC+00:00)

OTV 5 (USA 277) - Visible Passes

Search period start: 17 October 2019 00:00
Search period end: 27 October 2019 00:00
Orbit: 310 x 324 km, 54.5° (Epoch: 08 October)

Date Brightness Start Highest point End Pass type
(mag) Time Alt. Az. Time Alt. Az. Time Alt. Az.
17 Oct ? 04:21:37 37° ENE 04:21:37 37° ENE 04:23:42 10° E visible
18 Oct ? 04:36:01 64° ESE 04:36:01 64° ESE 04:38:25 10° ESE visible
19 Oct ? 04:50:31 40° SSW 04:50:31 40° SSW 04:52:48 10° SE visible
20 Oct ? 05:05:08 18° SSW 05:05:08 18° SSW 05:06:39 10° S visible
